Temp
-4 -4 -4 -4 -4 -4 -4 -5 -5 -5 -5 -5 -5 -5 -4 -4 -4 -4 -5 -4 -5 -5 -5 -5 -5 -5 -5 -5 -4 -4 -4 -4 -4 -4 -3 -3 -4 -4 -5 -5 -5 -4 -4 -5 -4
-5 -4 -4 -4 -4 -4 -5 -5 -5 -5 -5 -5 -5 -5 -5 -4 -4 -4 -4 -4 -5 -5 -5 -5 -5 -5 -5 -5 -4 -4 -4 -4 -4 -4 -3 -4 -4 -4 -5 -4 -4 -4 -4 -4 -4
-5 -5 -4 -4 -4 -5 -5 -5 -5 -5 -5 -5 -5 -5 -5 -4 -4 -4 -4 -5 -4 -4 -4 -4 -5 -5 -5 -5 -4 -5 -5 -5 -4 -3 -4 -4 -4 -4 -4 -4 -4 -4 -4 -4 -4
-5 -5 -5 -4 -4 -5 -5 -5 -5 -5 -5 -5 -5 -5 -5 -4 -4 -4 -4 -4 -4 -4 -4 -4 -4 -5 -5 -4 -4 -5 -5 -5 -5 -4 -4 -4 -4 -4 -5 -4 -4 -4 -4 -4 -4
-6 -6 -5 -5 -4 -5 -5 -5 -5 -5 -5 -5 -5 -5 -5 -4 -4 -5 -4 -5 -4 -4 -4 -4 -4 -4 -4 -4 -4 -5 -5 -4 -5 -4 -5 -4 -3 -4 -4 -4 -4 -3 -3 -4 -4
-6 -6 -6 -5 -5 -5 -5 -5 -5 -5 -5 -5 -5 -5 -5 -5 -4 -4 -4 -4 -4 -4 -4 -4 -4 -5 -4 -4 -4 -4 -5 -4 -4 -4 -4 -4 -4 -4 -4 -3 -3 -3 -3 -4 -4
-6 -6 -6 -6 -5 -5 -6 -5 -5 -5 -5 -5 -5 -5 -5 -5 -4 -4 -4 -4 -5 -4 -4 -4 -4 -5 -4 -3 -4 -4 -5 -5 -4 -4 -4 -4 -4 -4 -4 -4 -4 -4 -4 -4 -4
-7 -6 -6 -6 -5 -5 -6 -6 -5 -5 -6 -5 -5 -5 -5 -5 -4 -4 -4 -4 -4 -4 -4 -4 -4 -4 -4 -5 -5 -4 -4 -4 -4 -4 -4 -4 -4 -4 -5 -4 -4 -4 -4 -4 -4
-7 -7 -7 -6 -6 -5 -6 -6 -6 -6 -6 -5 -5 -5 -5 -5 -4 -4 -4 -4 -4 -4 -4 -4 -4 -4 -4 -5 -5 -4 -4 -4 -4 -4 -4 -3 -4 -3 -4 -5 -4 -4 -4 -4 -4
-7 -7 -7 -6 -6 -6 -6 -6 -6 -6 -6 -6 -5 -5 -5 -5 -4 -4 -4 -4 -4 -4 -4 -4 -4 -4 -4 -4 -5 -4 -4 -4 -4 -4 -4 -4 -4 -3 -4 -4 -4 -4 -4 -4 -4
-8 -8 -7 -7 -6 -6 -6 -6 -6 -6 -6 -6 -6 -5 -5 -5 -5 -4 -4 -4 -4 -4 -4 -5 -4 -4 -4 -5 -5 -5 -4 -4 -4 -4 -4 -4 -4 -3 -4 -4 -4 -4 -4 -4 -4
-8 -8 -8 -7 -6 -7 -7 -7 -7 -7 -6 -6 -6 -6 -5 -5 -5 -5 -5 -4 -4 -5 -5 -5 -4 -4 -4 -5 -5 -5 -4 -4 -4 -4 -4 -4 -4 -4 -4 -4 -4 -4 -4 -4 -5
-8 -8 -8 -7 -7 -7 -7 -7 -7 -7 -6 -6 -6 -6 -6 -6 -6 -6 -5 -4 -4 -5 -5 -4 -5 -5 -4 -5 -5 -5 -5 -5 -4 -4 -4 -4 -4 -4 -4 -4 -5 -4 -4 -3 -4
-8 -8 -8 -8 -7 -7 -7 -7 -7 -7 -7 -7 -6 -6 -6 -6 -6 -6 -5 -5 -5 -5 -4 -4 -5 -5 -5 -5 -5 -5 -5 -5 -5 -4 -4 -4 -4 -5 -4 -5 -5 -5 -4 -4 -4
-8 -8 -8 -8 -7 -7 -8 -7 -7 -7 -7 -7 -6 -6 -6 -6 -6 -6 -5 -5 -5 -5 -5 -5 -5 -5 -5 -5 -5 -5 -5 -5 -5 -5 -5 -5 -5 -5 -4 -5 -5 -5 -5 -5 -6
-8 -8 -8 -8 -8 -7 -8 -8 -7 -7 -7 -7 -6 -6 -6 -6 -6 -6 -6 -5 -5 -5 -5 -5 -5 -6 -5 -5 -5 -5 -5 -5 -5 -5 -5 -5 -5 -5 -5 -4 -5 -5 -5 -5 -6
-8 -8 -8 -8 -8 -8 -8 -8 -7 -7 -7 -7 -6 -6 -6 -7 -7 -6 -6 -5 -5 -5 -5 -6 -6 -5 -5 -5 -6 -6 -5 -5 -5 -5 -5 -5 -5 -5 -5 -5 -5 -5 -6 -5 -7
-7 -8 -8 -8 -8 -8 -8 -8 -7 -8 -7 -7 -6 -6 -6 -6 -7 -7 -6 -6 -4 -5 -6 -6 -6 -6 -6 -6 -6 -5 -5 -5 -4 -4 -5 -5 -5 -5 -5 -5 -5 -6 -6 -6 -6
-7 -7 -7 -7 -8 -8 -8 -8 -8 -7 -7 -7 -6 -6 -6 -6 -6 -7 -7 -6 -6 -6 -6 -6 -6 -6 -6 -6 -6 -6 -5 -5 -5 -5 -5 -5 -5 -5 -5 -5 -6 -6 -6 -6 -7
-7 -7 -7 -7 -8 -8 -8 -8 -8 -7 -7 -7 -6 -6 -6 -6 -6 -7 -7 -6 -6 -6 -6 -7 -6 -6 -6 -6 -6 -6 -6 -6 -6 -5 -5 -5 -5 -6 -6 -6 -6 -6 -6 -6 -6
-7 -7 -7 -7 -8 -8 -8 -8 -8 -7 -7 -7 -6 -6 -6 -6 -6 -6 -7 -7 -7 -7 -7 -7 -6 -6 -6 -6 -7 -6 -6 -6 -6 -6 -5 -6 -5 -6 -6 -6 -6 -6 -7 -7 -7
-7 -7 -7 -7 -8 -8 -8 -8 -7 -7 -8 -7 -7 -6 -6 -6 -6 -6 -7 -6 -6 -6 -6 -6 -6 -6 -6 -6 -6 -6 -6 -6 -6 -6 -5 -5 -5 -6 -6 -6 -6 -7 -7 -7 -8
-7 -7 -7 -8 -8 -8 -8 -8 -8 -7 -8 -7 -7 -7 -7 -6 -6 -6 -6 -7 -6 -7 -6 -6 -6 -6 -7 -7 -6 -6 -6 -6 -6 -6 -5 -6 -5 -6 -6 -6 -6 -7 -7 -8 -8
-8 -8 -8 -8 -8 -8 -8 -8 -8 -7 -8 -8 -7 -7 -7 -7 -6 -7 -7 -7 -7 -7 -6 -6 -6 -7 -6 -6 -6 -6 -6 -6 -6 -6 -5 -6 -6 -6 -7 -6 -6 -7 -7 -8 -7
-8 -8 -8 -8 -8 -8 -8 -8 -8 -7 -7 -7 -8 -7 -7 -7 -7 -6 -7 -6 -6 -6 -6 -6 -6 -7 -7 -6 -6 -6 -6 -6 -6 -6 -6 -7 -7 -7 -6 -6 -6 -7 -7 -7 -7
-8 -8 -8 -8 -8 -8 -8 -8 -8 -8 -8 -8 -8 -8 -7 -7 -7 -7 -7 -6 -5 -6 -5 -6 -7 -7 -7 -7 -7 -6 -6 -6 -6 -6 -6 -6 -6 -6 -6 -6 -6 -7 -7 -7 -7
-9 -9 -9 -9 -9 -8 -9 -9 -9 -8 -8 -8 -7 -7 -7 -7 -7 -7 -6 -5 -5 -6 -6 -7 -6 -7 -7 -7 -7 -7 -7 -6 -6 -6 -6 -6 -6 -6 -6 -7 -7 -7 -7 -7 -7
Height
5896 5897 5897 5897 5898 5898 5900 5900 5902 5904 5906 5908 5910 5911 5914 5915 5917 5918 5918 5918 5918 5918 5919 5920 5919 5919 5921 5922 5923 5924 5926 5927 5926 5926 5925 5923 5922 5921 5920 5920 5920 5921 5920 5921 5921
5894 5895 5895 5895 5896 5896 5898 5899 5900 5902 5905 5907 5909 5912 5914 5916 5917 5919 5919 5918 5919 5920 5921 5921 5922 5922 5923 5924 5926 5927 5927 5927 5928 5927 5927 5926 5924 5922 5922 5921 5922 5922 5922 5923 5923
5891 5892 5893 5893 5895 5895 5896 5898 5898 5901 5903 5906 5909 5911 5914 5916 5917 5919 5919 5919 5920 5921 5922 5923 5924 5925 5925 5927 5928 5928 5929 5929 5928 5928 5927 5928 5926 5925 5922 5923 5923 5924 5924 5924 5925
5888 5889 5890 5891 5893 5894 5895 5897 5897 5899 5903 5905 5909 5911 5914 5916 5919 5919 5920 5919 5920 5921 5922 5923 5925 5926 5926 5928 5930 5930 5930 5931 5930 5930 5930 5928 5927 5925 5924 5924 5925 5925 5925 5925 5926
5885 5887 5887 5888 5890 5892 5893 5895 5896 5898 5902 5905 5908 5911 5914 5916 5917 5919 5920 5920 5920 5920 5921 5923 5925 5926 5928 5928 5930 5931 5931 5932 5931 5931 5931 5932 5929 5927 5926 5925 5926 5926 5926 5927 5928
5881 5884 5885 5886 5887 5889 5891 5893 5895 5897 5900 5903 5907 5911 5914 5916 5916 5918 5920 5921 5921 5921 5922 5922 5924 5926 5926 5929 5930 5930 5931 5932 5933 5933 5932 5931 5932 5929 5928 5927 5927 5927 5928 5928 5929
5878 5880 5882 5884 5884 5887 5889 5891 5893 5895 5899 5902 5906 5910 5912 5915 5915 5917 5919 5921 5920 5921 5923 5923 5924 5924 5924 5929 5930 5930 5932 5932 5933 5934 5934 5933 5933 5931 5930 5930 5930 5929 5929 5930 5930
5874 5878 5879 5881 5882 5884 5886 5889 5890 5893 5897 5900 5904 5908 5910 5913 5914 5916 5919 5920 5921 5921 5923 5924 5924 5924 5925 5928 5931 5932 5933 5934 5933 5935 5934 5935 5933 5932 5932 5933 5932 5931 5931 5931 5931
5871 5874 5877 5878 5879 5881 5884 5887 5889 5892 5895 5899 5903 5906 5908 5911 5914 5915 5917 5918 5920 5921 5922 5924 5925 5925 5926 5929 5932 5933 5934 5934 5934 5935 5935 5935 5935 5934 5932 5933 5933 5933 5933 5933 5932
5868 5871 5874 5875 5877 5879 5881 5884 5887 5890 5893 5897 5901 5906 5908 5911 5912 5914 5916 5917 5919 5920 5922 5924 5925 5925 5926 5929 5932 5934 5935 5935 5936 5937 5936 5936 5936 5935 5935 5936 5936 5935 5934 5934 5934
5864 5867 5871 5872 5874 5877 5879 5882 5886 5890 5892 5896 5900 5903 5906 5909 5912 5912 5914 5915 5918 5920 5922 5923 5925 5925 5926 5929 5932 5935 5937 5938 5937 5938 5938 5937 5938 5937 5938 5938 5938 5938 5937 5937 5936
5860 5863 5867 5869 5871 5874 5876 5879 5883 5887 5890 5893 5897 5900 5903 5907 5910 5911 5912 5915 5916 5918 5921 5924 5924 5926 5928 5930 5933 5936 5937 5937 5938 5939 5940 5940 5940 5940 5940 5941 5940 5940 5939 5939 5938
5855 5859 5863 5865 5868 5872 5874 5877 5880 5883 5887 5891 5894 5897 5901 5905 5907 5909 5911 5912 5915 5918 5920 5922 5925 5927 5929 5932 5935 5936 5938 5939 5940 5940 5941 5941 5941 5942 5943 5943 5942 5941 5941 5940 5938
5850 5854 5858 5861 5867 5869 5872 5874 5877 5881 5886 5890 5892 5896 5899 5901 5904 5907 5909 5912 5914 5916 5918 5921 5924 5927 5930 5933 5935 5937 5938 5940 5941 5942 5943 5943 5944 5943 5945 5945 5944 5944 5943 5941 5940
5845 5849 5853 5857 5862 5866 5869 5871 5874 5878 5883 5887 5889 5893 5897 5899 5903 5905 5906 5909 5912 5914 5917 5919 5922 5926 5930 5933 5936 5938 5939 5940 5941 5943 5944 5945 5946 5944 5945 5946 5946 5945 5943 5942 5942
5839 5844 5848 5853 5858 5862 5865 5867 5871 5877 5879 5883 5886 5890 5893 5896 5898 5901 5904 5907 5911 5915 5917 5920 5923 5926 5929 5932 5935 5938 5939 5941 5942 5944 5945 5945 5947 5946 5946 5946 5946 5946 5945 5944 5942
5832 5838 5843 5848 5854 5858 5862 5865 5869 5872 5877 5881 5884 5888 5891 5892 5895 5899 5901 5905 5909 5915 5917 5919 5923 5925 5928 5932 5934 5937 5939 5942 5945 5945 5946 5945 5946 5947 5946 5946 5946 5945 5945 5942 5941
5826 5831 5837 5843 5850 5854 5858 5862 5866 5870 5873 5878 5882 5886 5889 5892 5892 5896 5898 5899 5904 5911 5916 5919 5923 5926 5928 5931 5934 5936 5939 5942 5944 5945 5945 5945 5947 5948 5947 5946 5946 5944 5943 5942 5940
5820 5825 5831 5839 5845 5850 5855 5858 5862 5866 5871 5875 5879 5883 5886 5890 5893 5895 5897 5900 5903 5908 5913 5915 5919 5923 5927 5929 5933 5936 5939 5940 5942 5943 5944 5945 5947 5946 5945 5945 5944 5943 5941 5939 5938
5814 5820 5827 5834 5841 5846 5850 5855 5859 5864 5868 5872 5876 5880 5884 5888 5891 5893 5895 5898 5900 5904 5909 5914 5918 5921 5925 5928 5931 5933 5937 5939 5940 5941 5942 5943 5943 5944 5943 5941 5940 5939 5939 5938 5935
5810 5816 5822 5830 5836 5841 5847 5852 5856 5861 5865 5869 5875 5879 5883 5885 5889 5892 5894 5897 5897 5901 5907 5913 5916 5920 5923 5925 5929 5932 5934 5937 5938 5939 5939 5940 5940 5939 5939 5938 5936 5935 5934 5932 5929
5806 5812 5818 5826 5833 5838 5844 5848 5852 5857 5863 5867 5872 5877 5880 5882 5884 5890 5892 5894 5896 5901 5904 5910 5914 5917 5920 5922 5926 5929 5932 5934 5935 5937 5937 5936 5937 5935 5935 5933 5932 5931 5930 5928 5925
5802 5808 5815 5823 5830 5836 5841 5845 5850 5856 5862 5866 5870 5873 5876 5880 5885 5888 5889 5892 5894 5898 5900 5903 5908 5914 5917 5921 5923 5926 5929 5931 5932 5933 5934 5933 5934 5932 5931 5930 5928 5926 5925 5923 5921
5800 5806 5812 5821 5828 5833 5838 5842 5848 5854 5859 5862 5866 5870 5874 5877 5883 5887 5890 5892 5894 5897 5899 5902 5906 5912 5914 5916 5920 5924 5926 5928 5929 5930 5931 5930 5929 5927 5925 5924 5922 5921 5920 5918 5915
5798 5804 5811 5819 5825 5830 5834 5839 5845 5851 5857 5862 5866 5866 5869 5874 5880 5881 5884 5888 5891 5895 5897 5900 5903 5908 5910 5915 5918 5921 5923 5924 5925 5926 5926 5925 5924 5923 5920 5918 5917 5916 5914 5911 5908
5796 5802 5810 5817 5821 5826 5831 5837 5843 5849 5854 5860 5861 5862 5863 5870 5873 5876 5881 5886 5888 5890 5891 5893 5895 5895 5903 5910 5914 5917 5919 5920 5921 5921 5921 5920 5918 5915 5914 5914 5912 5910 5908 5904 5901
5794 5800 5807 5813 5818 5823 5830 5836 5842 5848 5851 5854 5855 5855 5856 5859 5865 5871 5878 5880 5881 5883 5887 5887 5887 5889 5892 5901 5908 5912 5914 5916 5917 5917 5915 5913 5912 5910 5908 5906 5904 5902 5899 5896 5892
Wind_Speed
10 9 6 7 7 9 9 10 11 11 14 13 10 8 6 6 5 7 4 7 7 7 6 8 8 12 9 8 10 11 10 6 6 5 6 8 10 11 10 10 9 9 8 6 6
12 10 8 8 8 9 9 10 12 14 14 14 12 9 7 6 4 6 4 6 7 7 5 5 8 10 11 12 10 13 8 6 5 5 4 3 4 6 6 6 4 4 6 4 3
13 10 9 9 10 10 10 11 12 14 15 16 13 10 9 7 6 6 5 4 5 5 4 5 6 9 5 7 9 13 12 9 6 6 7 5 4 6 5 4 2 2 4 4 3
14 12 10 10 11 12 12 12 12 14 16 16 14 12 10 8 6 6 5 3 2 2 5 4 6 6 7 4 7 12 11 12 11 8 7 5 6 9 7 3 3 4 6 5 4
16 14 13 11 11 13 14 13 13 15 17 17 15 13 11 9 7 7 6 4 2 3 4 4 7 4 2 4 9 10 7 12 9 7 5 5 6 9 9 7 6 8 9 7 6
17 15 14 12 11 13 15 14 13 15 18 18 16 14 14 10 8 8 7 5 3 8 7 4 3 4 9 5 9 8 5 3 6 8 3 5 8 11 11 10 10 10 9 9 9
17 15 15 14 12 14 15 16 14 15 18 18 18 15 15 12 11 8 8 6 5 8 7 3 2 4 14 10 9 8 7 5 9 5 7 6 8 11 10 10 9 9 8 9 12
17 16 16 15 13 14 16 17 15 15 19 20 18 16 16 14 12 10 7 7 7 9 7 4 3 9 11 8 6 7 7 6 10 8 9 7 6 7 10 7 7 7 6 7 9
18 17 16 15 15 14 16 18 16 15 20 19 18 18 16 14 12 12 8 7 8 7 5 5 5 8 8 8 9 8 10 12 13 13 13 11 11 11 13 11 11 10 10 9 9
20 18 17 15 14 15 17 19 16 16 20 18 18 18 16 13 13 12 11 10 9 10 7 5 7 7 10 12 12 10 14 14 14 13 13 13 12 14 15 12 11 11 9 7 6
23 19 18 16 15 16 17 19 17 16 18 18 18 18 16 14 12 10 9 11 12 14 10 10 8 10 9 12 14 15 16 16 15 15 14 13 10 12 15 14 12 8 6 3 1
26 22 19 17 16 16 17 19 16 16 19 20 20 19 16 14 13 12 11 9 10 17 17 15 18 15 11 14 20 16 17 14 12 12 10 9 8 9 12 14 11 11 8 4 3
29 25 22 19 17 15 17 18 17 19 21 23 22 21 19 18 15 17 16 13 13 18 20 19 19 20 16 20 20 15 12 12 11 10 7 10 9 9 9 10 11 10 8 6 1
29 27 25 21 18 15 17 19 19 21 23 23 23 22 19 18 19 17 14 12 12 18 20 21 28 24 19 21 21 15 14 13 11 7 4 7 9 9 7 7 9 9 7 5 4
27 27 26 22 20 15 20 21 21 24 25 26 25 23 20 21 23 20 19 15 13 17 25 26 33 27 22 25 19 16 14 14 10 7 8 5 5 6 5 3 6 9 11 3 8
30 28 27 25 21 17 23 23 25 28 28 27 26 23 22 24 28 21 20 18 17 15 23 27 27 26 23 20 17 17 14 12 10 10 10 7 5 3 1 2 1 5 9 6 11
32 31 29 26 23 20 25 26 29 30 28 27 26 23 22 20 19 18 19 22 19 21 18 23 26 24 20 16 17 18 14 12 11 10 7 7 8 6 2 3 6 6 6 2 7
32 33 33 28 26 23 28 30 31 30 30 27 25 25 24 24 21 21 16 20 23 27 23 25 23 23 15 17 21 18 15 13 12 6 3 5 4 3 1 4 4 8 8 9 4
32 34 34 30 28 26 30 32 33 33 29 26 27 27 27 25 23 21 16 20 21 27 28 19 26 23 16 21 21 19 16 12 8 4 3 2 2 4 2 2 4 5 11 13 6
30 35 34 33 31 29 33 33 35 33 30 27 28 28 30 27 26 22 17 15 29 31 29 18 20 21 18 20 20 15 15 9 6 6 7 7 6 2 4 7 12 10 5 13 10
30 33 36 35 34 31 33 35 37 34 32 28 27 25 31 30 26 24 17 17 19 29 21 20 26 21 19 24 24 19 16 13 11 9 10 11 11 12 10 13 14 14 11 12 11
29 33 35 36 36 31 35 38 38 37 31 29 27 28 31 30 32 26 22 27 21 28 20 21 22 21 25 27 26 20 19 16 16 16 18 17 13 11 14 12 16 14 13 14 16
27 30 34 37 34 31 36 38 38 35 31 26 29 28 29 29 27 26 20 21 16 18 14 15 29 21 24 29 28 21 19 19 20 19 16 14 8 10 15 18 17 12 15 17 21
27 32 37 37 32 32 38 39 38 35 33 27 26 27 25 25 26 24 24 24 18 18 17 20 24 25 25 26 26 22 19 18 17 16 13 13 15 19 23 22 18 17 18 22 27
28 33 36 35 31 32 39 40 38 34 31 29 26 29 29 28 24 17 30 29 26 18 21 22 22 29 27 23 20 20 22 21 19 18 17 20 22 22 24 20 19 20 24 30 35
29 35 36 33 31 33 38 38 37 32 27 22 20 23 29 29 29 27 22 18 19 27 26 27 35 32 26 26 25 23 22 22 21 22 25 24 19 18 18 19 20 22 27 33 38
31 36 35 32 30 32 35 37 35 27 24 24 23 24 32 38 37 31 26 25 20 29 33 30 41 36 34 31 24 25 24 25 24 23 22 21 19 19 23 22 22 25 31 37 41
Wind_Direction
282 279 266 259 240 211 217 213 214 207 200 204 202 188 172 168 122 104 101 107 107 102 65 49 86 78 85 92 92 90 101 110 108 88 81 84 84 77 72 68 58 61 70 82 90
272 265 261 250 243 212 214 211 218 206 200 203 204 193 175 163 146 116 118 118 114 103 101 77 80 89 89 67 96 90 89 162 139 90 87 57 75 94 77 62 53 57 71 72 94
262 256 251 242 244 220 205 213 214 206 199 203 206 192 176 168 167 125 125 149 130 128 121 117 110 126 111 79 93 89 72 85 111 85 76 90 119 103 68 78 65 85 96 100 99
258 248 239 237 243 223 207 211 214 208 200 201 204 194 178 169 175 126 138 156 147 171 177 140 133 127 158 139 116 93 89 84 82 92 95 83 80 82 81 98 128 96 83 90 103
255 248 235 229 235 228 213 209 214 210 201 200 201 197 180 177 174 142 155 137 178 161 174 168 160 166 47 129 122 101 130 121 103 100 77 105 111 85 83 106 112 87 83 89 107
253 247 238 230 223 231 216 211 215 212 200 199 200 196 183 187 185 167 169 138 149 154 170 179 130 242 233 189 124 99 112 183 190 115 154 138 122 99 80 82 81 80 86 94 91
251 249 238 230 222 226 217 212 214 214 201 200 198 193 187 192 194 185 170 155 153 153 160 175 35 76 139 150 99 102 96 105 171 112 138 155 114 103 90 83 84 81 81 91 101
247 249 236 231 224 222 218 211 213 215 202 201 197 191 191 194 194 197 169 178 178 172 178 162 126 122 133 143 151 118 121 150 123 146 140 142 113 122 113 111 108 90 90 90 94
244 247 237 232 228 222 217 211 212 212 205 200 196 190 190 191 197 195 182 197 195 181 186 162 135 116 151 192 147 131 131 133 120 126 113 112 111 106 103 105 100 98 99 100 94
241 244 237 232 231 223 216 211 209 213 204 196 195 191 194 184 197 198 197 197 194 182 188 175 166 183 168 159 165 145 141 133 133 123 114 100 94 93 94 93 82 79 73 61 78
238 241 239 231 232 225 213 208 207 210 203 191 190 190 193 192 197 194 206 202 185 181 196 192 175 176 162 149 160 161 146 141 128 110 103 97 88 86 84 76 67 60 50 34 73
234 235 237 230 231 228 214 206 203 200 194 185 185 191 194 189 193 201 204 189 177 184 191 196 179 174 156 150 154 163 154 136 121 112 108 107 104 97 94 65 67 47 26 12 307
232 230 231 229 229 230 213 202 196 198 190 183 185 190 190 195 195 196 202 195 190 190 201 200 186 169 164 156 159 164 158 152 144 132 90 88 140 136 116 76 56 32 14 1 297
230 228 227 227 226 229 208 197 194 194 189 184 187 194 192 199 198 207 197 189 186 186 191 191 189 168 162 163 165 165 159 158 157 142 121 80 112 142 131 81 45 21 2 3 40
228 225 222 222 221 222 204 195 192 189 185 189 191 192 196 203 199 206 199 185 187 176 168 166 166 168 170 174 167 160 162 175 183 204 158 127 114 120 135 97 41 8 1 31 87
223 223 219 219 216 215 203 194 189 189 189 191 194 193 200 211 199 205 205 203 191 183 189 183 174 174 174 172 173 167 166 167 167 168 163 161 150 118 91 198 147 1 355 111 110
218 218 216 216 212 211 202 193 191 190 190 193 195 195 201 212 209 199 206 209 202 189 168 168 175 182 180 167 170 175 177 176 174 170 162 186 204 187 341 320 252 330 327 254 110
215 212 213 213 209 209 202 195 192 191 192 195 198 201 201 212 221 198 212 201 206 189 186 176 178 190 193 178 175 176 184 194 188 192 158 162 164 179 108 350 267 255 278 262 173
212 210 210 209 205 207 202 196 193 196 194 199 204 204 204 207 206 208 214 206 217 195 196 205 175 191 192 177 181 184 191 199 209 226 224 254 101 127 8 113 312 272 251 231 237
210 208 206 206 201 205 201 195 197 198 198 200 208 205 204 206 208 206 215 215 207 197 191 183 196 200 199 198 195 197 207 210 237 262 277 296 340 332 331 341 335 345 267 228 262
208 206 204 200 200 205 200 196 200 201 198 206 209 211 211 207 203 208 203 192 171 174 180 193 199 209 213 210 219 203 220 228 245 272 293 307 323 325 316 322 323 325 330 336 317
208 203 200 198 200 202 197 199 202 202 201 211 213 211 211 206 203 209 203 198 202 188 183 201 204 211 212 209 212 217 224 239 256 274 285 302 315 302 306 314 315 310 314 312 304
205 200 197 196 199 200 199 202 206 206 202 213 218 221 217 211 199 196 200 220 204 192 208 241 194 204 210 210 213 212 232 248 263 271 287 296 295 320 319 306 303 289 295 294 296
203 195 194 195 197 199 199 204 211 210 207 220 216 218 210 203 201 202 212 215 231 230 228 242 187 203 211 216 220 226 235 241 257 277 274 302 298 305 310 307 302 296 290 291 292
199 193 193 193 197 201 202 205 212 214 215 217 235 227 203 198 197 210 202 214 230 214 235 238 217 198 210 215 216 223 231 238 254 272 283 293 296 293 299 297 296 291 289 290 288
192 192 193 194 200 203 204 206 215 216 221 227 239 257 224 190 197 203 212 212 222 221 234 233 212 207 192 210 212 228 234 244 259 269 277 285 292 292 293 291 285 285 289 292 296
191 191 193 196 203 207 203 209 217 216 225 229 244 265 201 187 195 208 207 207 212 228 240 234 217 191 180 198 219 233 241 251 262 270 287 295 296 299 292 292 279 294 305 302 302